Time,TemperatureF,DewpointF,PressureIn,WindDirection,WindDirectionDegrees,WindSpeedMPH,WindSpeedGustMPH,Humidity,HourlyPrecipIn,Conditions,Clouds,dailyrainin,SoftwareType,DateUTC
2013-07-08 00:02:00,74.0,67.0,29.96,West,274,1.0,5.0,80,0.00,,,0.00,,2013-07-08 04:02:00,
2013-07-08 00:12:00,74.0,67.0,29.96,West,274,1.0,5.0,80,0.00,,,0.00,,2013-07-08 04:12:00,
2013-07-08 00:22:00,74.0,67.0,29.97,West,279,1.0,5.0,80,0.00,,,0.00,,2013-07-08 04:22:00,
2013-07-08 00:33:00,74.0,67.0,29.97,West,279,1.0,5.0,80,0.00,,,0.00,,2013-07-08 04:33:00,
2013-07-08 00:42:00,74.0,67.0,29.96,WSW,253,1.0,4.0,79,0.00,,,0.00,,2013-07-08 04:42:00,
2013-07-08 00:53:00,74.0,67.0,29.96,West,270,0.0,3.0,79,0.00,,,0.00,,2013-07-08 04:53:00,
2013-07-08 01:01:00,74.0,67.0,29.97,West,260,0.0,3.0,80,0.00,,,0.00,,2013-07-08 05:01:00,
2013-07-08 01:12:00,74.0,67.0,29.97,West,260,0.0,3.0,80,0.00,,,0.00,,2013-07-08 05:12:00,
2013-07-08 01:22:00,73.0,66.0,29.96,West,278,1.0,3.0,80,0.00,,,0.00,,2013-07-08 05:22:00,
2013-07-08 01:33:00,73.0,67.0,29.97,West,268,0.0,5.0,81,0.00,,,0.00,,2013-07-08 05:33:00,
2013-07-08 01:43:00,73.0,67.0,29.97,West,268,0.0,5.0,81,0.00,,,0.00,,2013-07-08 05:43:00,
2013-07-08 01:53:00,73.0,67.0,29.97,WSW,240,2.0,4.0,82,0.00,,,0.00,,2013-07-08 05:53:00,
2013-07-08 02:01:00,73.0,67.0,29.97,WSW,246,1.0,4.0,82,0.00,,,0.00,,2013-07-08 06:01:00,
2013-07-08 02:12:00,73.0,67.0,29.97,WSW,246,1.0,4.0,82,0.00,,,0.00,,2013-07-08 06:12:00,
2013-07-08 02:22:00,72.0,67.0,29.97,WSW,256,2.0,5.0,85,0.00,,,0.00,,2013-07-08 06:22:00,
2013-07-08 02:34:00,72.0,67.0,29.97,WSW,256,2.0,5.0,85,0.00,,,0.00,,2013-07-08 06:34:00,
2013-07-08 02:43:00,72.0,68.0,29.97,WSW,256,2.0,7.0,86,0.00,,,0.00,,2013-07-08 06:43:00,
2013-07-08 02:53:00,72.0,68.0,29.96,West,279,1.0,5.0,86,0.00,,,0.00,,2013-07-08 06:53:00,
2013-07-08 03:02:00,72.0,68.0,29.96,West,279,1.0,5.0,86,0.00,,,0.00,,2013-07-08 07:02:00,
2013-07-08 03:12:00,71.0,67.0,29.96,WNW,288,0.0,4.0,87,0.00,,,0.00,,2013-07-08 07:12:00,
2013-07-08 03:22:00,71.0,67.0,29.96,West,272,0.0,3.0,88,0.00,,,0.00,,2013-07-08 07:22:00,
2013-07-08 03:34:00,71.0,67.0,29.96,West,272,0.0,3.0,88,0.00,,,0.00,,2013-07-08 07:34:00,
2013-07-08 03:44:00,71.0,67.0,29.96,West,259,2.0,4.0,88,0.00,,,0.00,,2013-07-08 07:44:00,
2013-07-08 03:53:00,71.0,68.0,29.96,West,281,0.0,4.0,89,0.00,,,0.00,,2013-07-08 07:53:00,
2013-07-08 04:02:00,71.0,68.0,29.96,West,281,0.0,4.0,89,0.00,,,0.00,,2013-07-08 08:02:00,
2013-07-08 04:12:00,70.0,67.0,29.97,NW,307,2.0,5.0,89,0.00,,,0.00,,2013-07-08 08:12:00,
2013-07-08 04:22:00,70.0,67.0,29.96,West,271,2.0,5.0,89,0.00,,,0.00,,2013-07-08 08:22:00,
2013-07-08 04:33:00,70.0,67.0,29.96,West,271,2.0,5.0,89,0.00,,,0.00,,2013-07-08 08:33:00,
2013-07-08 04:42:00,70.0,67.0,29.97,West,269,1.0,4.0,89,0.00,,,0.00,,2013-07-08 08:42:00,
2013-07-08 04:53:00,70.0,67.0,29.97,WNW,290,0.0,5.0,89,0.00,,,0.00,,2013-07-08 08:53:00,
2013-07-08 05:02:00,70.0,67.0,29.97,WNW,290,0.0,5.0,89,0.00,,,0.00,,2013-07-08 09:02:00,
2013-07-08 05:11:00,70.0,67.0,29.97,NW,307,0.0,1.0,89,0.00,,,0.00,,2013-07-08 09:11:00,
2013-07-08 05:22:00,70.0,67.0,29.98,NNE,25,0.0,1.0,89,0.00,,,0.00,,2013-07-08 09:22:00,
2013-07-08 05:34:00,70.0,67.0,29.98,NNE,25,0.0,1.0,89,0.00,,,0.00,,2013-07-08 09:34:00,
2013-07-08 05:43:00,70.0,67.0,29.98,WNW,284,0.0,1.0,90,0.00,,,0.00,,2013-07-08 09:43:00,
2013-07-08 05:53:00,70.0,67.0,29.99,WSW,250,0.0,1.0,90,0.00,,,0.00,,2013-07-08 09:53:00,
2013-07-08 06:02:00,70.0,67.0,29.99,WSW,250,0.0,1.0,90,0.00,,,0.00,,2013-07-08 10:02:00,
2013-07-08 06:11:00,70.0,67.0,29.99,NW,320,0.0,4.0,89,0.00,,,0.00,,2013-07-08 10:11:00,
2013-07-08 06:22:00,71.0,67.0,29.99,NNW,331,2.0,7.0,88,0.00,,,0.00,,2013-07-08 10:22:00,
2013-07-08 06:34:00,71.0,67.0,29.99,NNW,331,2.0,7.0,88,0.00,,,0.00,,2013-07-08 10:34:00,
2013-07-08 06:43:00,71.0,67.0,29.99,NNW,348,1.0,4.0,88,0.00,,,0.00,,2013-07-08 10:43:00,
2013-07-08 06:53:00,71.0,67.0,29.99,NW,314,0.0,5.0,87,0.00,,,0.00,,2013-07-08 10:53:00,
2013-07-08 07:02:00,71.0,67.0,29.99,NW,314,0.0,5.0,87,0.00,,,0.00,,2013-07-08 11:02:00,
2013-07-08 07:11:00,71.0,67.0,30.00,West,270,0.0,5.0,87,0.00,,,0.00,,2013-07-08 11:11:00,
2013-07-08 07:33:00,72.0,68.0,30.01,WSW,240,3.0,6.0,87,0.00,,,0.00,,2013-07-08 11:33:00,
2013-07-08 07:43:00,72.0,68.0,30.01,WNW,297,2.0,5.0,87,0.00,,,0.00,,2013-07-08 11:43:00,
2013-07-08 07:53:00,72.0,68.0,30.01,NNE,28,0.0,6.0,86,0.00,,,0.00,,2013-07-08 11:53:00,
2013-07-08 08:02:00,72.0,68.0,30.01,NNE,28,0.0,6.0,86,0.00,,,0.00,,2013-07-08 12:02:00,
2013-07-08 08:12:00,73.0,68.0,30.01,NW,325,3.0,6.0,85,0.00,,,0.00,,2013-07-08 12:12:00,
2013-07-08 08:22:00,73.0,68.0,30.01,NW,325,3.0,6.0,85,0.00,,,0.00,,2013-07-08 12:22:00,
2013-07-08 08:34:00,75.0,69.0,30.01,NNW,345,3.0,8.0,82,0.00,,,0.00,,2013-07-08 12:34:00,
2013-07-08 08:53:00,77.0,70.0,30.01,WNW,295,3.0,6.0,78,0.00,,,0.00,,2013-07-08 12:53:00,
2013-07-08 09:02:00,77.0,70.0,30.01,WNW,295,3.0,6.0,78,0.00,,,0.00,,2013-07-08 13:02:00,
2013-07-08 09:22:00,78.0,70.0,30.01,NW,324,2.0,7.0,77,0.00,,,0.00,,2013-07-08 13:22:00,
2013-07-08 09:33:00,79.0,70.0,30.01,NNE,14,5.0,9.0,73,0.00,,,0.00,,2013-07-08 13:33:00,
2013-07-08 09:42:00,80.0,69.0,30.01,NW,309,4.0,8.0,69,0.00,,,0.00,,2013-07-08 13:42:00,
2013-07-08 09:53:00,80.0,69.0,30.01,NW,309,4.0,8.0,69,0.00,,,0.00,,2013-07-08 13:53:00,
2013-07-08 10:02:00,80.0,68.0,30.01,North,353,6.0,11.0,66,0.00,,,0.00,,2013-07-08 14:02:00,
2013-07-08 10:12:00,81.0,67.0,30.01,NE,36,3.0,13.0,62,0.00,,,0.00,,2013-07-08 14:12:00,
2013-07-08 10:34:00,82.0,66.0,30.01,NNW,342,4.0,12.0,59,0.00,,,0.00,,2013-07-08 14:34:00,
2013-07-08 10:43:00,83.0,67.0,30.01,North,352,3.0,9.0,59,0.00,,,0.00,,2013-07-08 14:43:00,
2013-07-08 11:02:00,83.0,68.0,30.01,West,281,2.0,8.0,61,0.00,,,0.00,,2013-07-08 15:02:00,
2013-07-08 11:33:00,85.0,67.0,30.01,NNE,24,1.0,7.0,55,0.00,,,0.00,,2013-07-08 15:33:00,
2013-07-08 11:43:00,85.0,67.0,30.01,WSW,257,3.0,7.0,55,0.00,,,0.00,,2013-07-08 15:43:00,
2013-07-08 11:53:00,85.0,67.0,30.01,WSW,257,3.0,7.0,55,0.00,,,0.00,,2013-07-08 15:53:00,
2013-07-08 12:02:00,85.0,67.0,30.01,WSW,257,3.0,7.0,55,0.00,,,0.00,,2013-07-08 16:02:00,
2013-07-08 12:11:00,87.0,68.0,30.01,SW,226,1.0,6.0,53,0.00,,,0.00,,2013-07-08 16:11:00,
2013-07-08 12:22:00,86.0,65.0,30.01,West,274,3.0,11.0,49,0.00,,,0.00,,2013-07-08 16:22:00,
2013-07-08 12:43:00,85.0,66.0,30.01,WSW,255,4.0,8.0,53,0.00,,,0.00,,2013-07-08 16:43:00,
2013-07-08 12:56:00,85.0,66.0,30.01,WSW,255,4.0,8.0,53,0.00,,,0.00,,2013-07-08 16:56:00,
2013-07-08 13:08:00,85.0,67.0,30.01,WSW,243,4.0,9.0,55,0.00,,,0.00,,2013-07-08 17:08:00,
2013-07-08 13:37:00,86.0,67.0,30.01,WSW,238,3.0,10.0,53,0.00,,,0.00,,2013-07-08 17:37:00,
2013-07-08 13:47:00,88.0,66.0,30.01,NNW,344,5.0,12.0,49,0.00,,,0.00,,2013-07-08 17:47:00,
2013-07-08 13:54:00,88.0,66.0,30.01,NNW,344,5.0,12.0,49,0.00,,,0.00,,2013-07-08 17:54:00,
2013-07-08 14:45:00,88.0,66.0,30.00,West,276,3.0,9.0,48,0.00,,,0.00,,2013-07-08 18:45:00,
2013-07-08 14:53:00,88.0,66.0,29.99,WSW,251,3.0,9.0,49,0.00,,,0.00,,2013-07-08 18:53:00,
2013-07-08 15:15:00,89.0,67.0,29.99,North,351,2.0,9.0,48,0.00,,,0.00,,2013-07-08 19:15:00,
2013-07-08 15:21:00,88.0,68.0,29.98,NNW,345,5.0,8.0,51,0.00,,,0.00,,2013-07-08 19:21:00,
2013-07-08 15:34:00,88.0,68.0,29.98,NNW,345,5.0,8.0,51,0.00,,,0.00,,2013-07-08 19:34:00,
2013-07-08 15:41:00,88.0,68.0,29.97,WNW,298,3.0,13.0,51,0.00,,,0.00,,2013-07-08 19:41:00,
2013-07-08 16:01:00,88.0,68.0,29.98,SSW,209,4.0,7.0,51,0.00,,,0.00,,2013-07-08 20:01:00,
2013-07-08 16:17:00,88.0,68.0,29.98,SSW,209,4.0,7.0,51,0.00,,,0.00,,2013-07-08 20:17:00,
2013-07-08 16:23:00,88.0,68.0,29.97,NNE,12,2.0,11.0,51,0.00,,,0.00,,2013-07-08 20:23:00,
2013-07-08 16:46:00,88.0,66.0,29.96,NE,35,3.0,10.0,49,0.00,,,0.00,,2013-07-08 20:46:00,
2013-07-08 16:53:00,88.0,68.0,29.96,SSW,203,1.0,10.0,52,0.00,,,0.00,,2013-07-08 20:53:00,
2013-07-08 17:01:00,88.0,68.0,29.96,West,267,5.0,9.0,51,0.00,,,0.00,,2013-07-08 21:01:00,
2013-07-08 17:18:00,88.0,68.0,29.96,West,267,5.0,9.0,51,0.00,,,0.00,,2013-07-08 21:18:00,
2013-07-08 18:19:00,88.0,66.0,29.96,WNW,300,4.0,9.0,49,0.00,,,0.00,,2013-07-08 22:19:00,
2013-07-08 18:33:00,87.0,68.0,29.95,WNW,290,4.0,8.0,53,0.00,,,0.00,,2013-07-08 22:33:00,
2013-07-08 18:46:00,87.0,68.0,29.95,WNW,290,4.0,8.0,53,0.00,,,0.00,,2013-07-08 22:46:00,
2013-07-08 18:56:00,86.0,67.0,29.96,WSW,255,4.0,10.0,54,0.00,,,0.00,,2013-07-08 22:56:00,
2013-07-08 19:25:00,87.0,67.0,29.95,WNW,288,1.0,8.0,52,0.00,,,0.00,,2013-07-08 23:25:00,
2013-07-08 19:33:00,85.0,65.0,29.96,West,265,3.0,7.0,51,0.00,,,0.00,,2013-07-08 23:33:00,
2013-07-08 20:02:00,84.0,67.0,29.97,West,271,2.0,7.0,56,0.00,,,0.00,,2013-07-09 00:02:00,
2013-07-08 20:19:00,84.0,67.0,29.97,West,271,2.0,7.0,56,0.00,,,0.00,,2013-07-09 00:19:00,
2013-07-08 20:26:00,83.0,67.0,29.98,West,260,2.0,6.0,59,0.00,,,0.00,,2013-07-09 00:26:00,
2013-07-08 20:56:00,82.0,68.0,29.98,West,270,2.0,9.0,63,0.00,,,0.00,,2013-07-09 00:56:00,
2013-07-08 21:17:00,81.0,68.0,29.99,West,266,3.0,7.0,64,0.00,,,0.00,,2013-07-09 01:17:00,
2013-07-08 21:24:00,81.0,68.0,30.00,West,270,2.0,7.0,64,0.00,,,0.00,,2013-07-09 01:24:00,
2013-07-08 21:35:00,81.0,68.0,30.00,West,270,2.0,7.0,64,0.00,,,0.00,,2013-07-09 01:35:00,
2013-07-08 21:45:00,80.0,68.0,30.00,WSW,238,1.0,4.0,66,0.00,,,0.00,,2013-07-09 01:45:00,
2013-07-08 22:11:00,80.0,68.0,30.01,West,266,2.0,6.0,67,0.00,,,0.00,,2013-07-09 02:11:00,
2013-07-08 22:56:00,79.0,68.0,30.02,NNW,334,1.0,4.0,69,0.00,,,0.00,,2013-07-09 02:56:00,
2013-07-08 23:12:00,78.0,69.0,30.03,West,276,0.0,3.0,73,0.00,,,0.00,,2013-07-09 03:12:00,
2013-07-08 23:35:00,77.0,69.0,30.03,ESE,121,0.0,1.0,76,0.00,,,0.00,,2013-07-09 03:35:00,